Weather History for Plainview, TX

Change the Weather History Date:

Saturday, November 30, 2013

  Actual Average Record
Temperature  
Mean Temperature 48 °F -  
Max Temperature 63 °F 54 °F 77 °F (1970)
Min Temperature 32 °F 29 °F 15 °F (2006)
Degree Days  
Heating Degree Days 18    
Moisture  
Dew Point 36 °F    
Average Humidity 71    
Maximum Humidity 95    
Minimum Humidity 36    
Precipitation  
Precipitation 0.00 in - - ()
Sea Level Pressure  
Sea Level Pressure 30.17 in    
Wind  
Wind Speed 7 mph (WSW)    
Max Wind Speed 14 mph    
Max Gust Speed -    
Visibility 10 miles    
Events      
Averages and records for this station are not official NWS values.
T = Trace of Precipitation, MM = Missing Value Source: NWS Daily Summary

Daily Weather History Graph

Daily Weather History Graph

Search for Another Location

Airport:

Trip Planner

Search our weather history database for the weather conditions in past years. The results will help you decide how hot, cold, wet, or windy it might be!

Date:

Astronomy

Nov. 30, 2013 Rise Set
Actual Time 7:33 AM CST 5:37 PM CST
Civil Twilight 7:06 AM CST 6:04 PM CST
Nautical Twilight 6:35 AM CST 6:35 PM CST
Astronomical Twilight 6:05 AM CST 7:05 PM CST
Moon 4:52 AM CST (11/30) 3:58 PM CST (11/30)
Length of Visible Light 10h 58m
Length of Day
10h 03m
Waning Crescent, 7% of the Moon is Illuminated
Nov 30
Waning Crescent
Dec 2
New
Dec 9
First Quarter
Dec 17
Full
Dec 25
Last Quarter

Hourly Weather History & Observations

Time (CST) Temp. Windchill Dew Point Humidity Pressure Visibility Wind Dir Wind Speed Gust Speed Precip Events Conditions
12:15 AM 39.7 °F 34.3 °F 34.9 °F 83% 30.22 in 10.0 mi WSW 8.1 mph - N/A   Clear
12:35 AM 39.9 °F 35.1 °F 34.9 °F 82% 30.22 in 10.0 mi WSW 6.9 mph - N/A   Clear
12:55 AM 39.2 °F 35.9 °F 34.9 °F 84% 30.22 in 10.0 mi West 4.6 mph - N/A   Clear
1:15 AM 37.4 °F 32.8 °F 33.8 °F 87% 30.22 in 10.0 mi West 5.8 mph - N/A   Clear
1:35 AM 36.9 °F 33.1 °F 33.4 °F 87% 30.21 in 10.0 mi West 4.6 mph - N/A   Clear
1:55 AM 36.7 °F 32.9 °F 33.1 °F 87% 30.21 in 10.0 mi West 4.6 mph - N/A   Clear
2:15 AM 34.7 °F 31.8 °F 32.4 °F 91% 30.22 in 10.0 mi West 3.5 mph - N/A   Clear
2:35 AM 34.7 °F 29.6 °F 32.9 °F 93% 30.21 in 10.0 mi WSW 5.8 mph - N/A   Clear
2:55 AM 34.7 °F 30.6 °F 32.5 °F 92% 30.21 in 10.0 mi West 4.6 mph - N/A   Clear
3:15 AM 34.7 °F 30.6 °F 32.5 °F 92% 30.21 in 10.0 mi WSW 4.6 mph - N/A   Clear
3:35 AM 34.7 °F 28.8 °F 32.2 °F 91% 30.20 in 10.0 mi West 6.9 mph - N/A   Clear
3:55 AM 36.0 °F 29.6 °F 32.9 °F 89% 30.20 in 10.0 mi WSW 8.1 mph - N/A   Clear
4:15 AM 37.2 °F 31.9 °F 33.6 °F 87% 30.21 in 10.0 mi WSW 6.9 mph - N/A   Clear
4:35 AM 34.7 °F 28.8 °F 32.0 °F 90% 30.20 in 10.0 mi WSW 6.9 mph - N/A   Clear
4:55 AM 34.5 °F 28.6 °F 32.2 °F 91% 30.21 in 10.0 mi West 6.9 mph - N/A   Clear
5:15 AM 32.2 °F 26.7 °F 30.6 °F 94% 30.20 in 10.0 mi West 5.8 mph - N/A   Clear
5:35 AM 32.2 °F 26.7 °F 30.7 °F 94% 30.20 in 10.0 mi WSW 5.8 mph - N/A   Clear
5:55 AM 34.7 °F 28.8 °F 32.9 °F 93% 30.20 in 10.0 mi WSW 6.9 mph - N/A   Clear
6:15 AM 34.7 °F 29.6 °F 32.5 °F 92% 30.20 in 10.0 mi WSW 5.8 mph - N/A   Clear
6:35 AM 32.7 °F 28.3 °F 31.1 °F 94% 30.20 in 10.0 mi West 4.6 mph - N/A   Clear
6:55 AM 34.7 °F 30.6 °F 32.9 °F 93% 30.20 in 10.0 mi West 4.6 mph - N/A   Clear
7:15 AM 34.7 °F 29.6 °F 32.4 °F 91% 30.20 in 10.0 mi West 5.8 mph - N/A   Clear
7:35 AM 32.2 °F 27.7 °F 30.6 °F 94% 30.20 in 10.0 mi West 4.6 mph - N/A   Clear
7:55 AM 32.2 °F 27.7 °F 30.9 °F 95% 30.21 in 10.0 mi West 4.6 mph - N/A   Clear
8:15 AM 32.2 °F 28.9 °F 30.9 °F 95% 30.21 in 10.0 mi WSW 3.5 mph - N/A   Clear
8:35 AM 34.9 °F 30.8 °F 33.1 °F 93% 30.21 in 10.0 mi WSW 4.6 mph - N/A   Clear
8:55 AM 38.7 °F 34.3 °F 35.6 °F 89% 30.21 in 10.0 mi WSW 5.8 mph - N/A   Clear
9:15 AM 41.9 °F 38.2 °F 37.2 °F 83% 30.21 in 10.0 mi West 5.8 mph - N/A   Clear
9:35 AM 47.3 °F - 39.9 °F 76% 30.21 in 10.0 mi West 8.1 mph - N/A   Clear
9:55 AM 50.0 °F - 41.0 °F 71% 30.21 in 10.0 mi West 6.9 mph - N/A   Clear
10:15 AM 52.3 °F - 41.4 °F 66% 30.21 in 10.0 mi West 6.9 mph - N/A   Clear
10:35 AM 54.9 °F - 41.9 °F 62% 30.20 in 10.0 mi WSW 8.1 mph - N/A   Clear
10:55 AM 57.4 °F - 40.6 °F 54% 30.20 in 10.0 mi West 9.2 mph - N/A   Clear
11:15 AM 59.7 °F - 39.6 °F 47% 30.21 in 10.0 mi West 8.1 mph - N/A   Clear
11:35 AM 60.8 °F - 36.5 °F 40% 30.20 in 10.0 mi WSW 8.1 mph - N/A   Clear
11:55 AM 61.7 °F - 35.8 °F 38% 30.19 in 10.0 mi West 10.4 mph - N/A   Clear
12:15 PM 62.6 °F - 37.6 °F 40% 30.17 in 10.0 mi WSW 8.1 mph - N/A   Clear
12:35 PM 62.6 °F - 37.4 °F 39% 30.16 in 10.0 mi West 6.9 mph - N/A   Clear
12:55 PM 62.6 °F - 37.2 °F 39% 30.16 in 10.0 mi West 10.4 mph - N/A   Clear
1:15 PM 62.6 °F - 35.2 °F 36% 30.16 in 10.0 mi West 12.7 mph - N/A   Clear
1:35 PM 63.0 °F - 35.4 °F 36% 30.15 in 10.0 mi West 13.8 mph - N/A   Clear
1:55 PM 62.6 °F - 35.2 °F 36% 30.15 in 10.0 mi West 11.5 mph - N/A   Clear
2:15 PM 61.2 °F - 34.9 °F 37% 30.13 in 10.0 mi West 10.4 mph - N/A   Clear
2:35 PM 61.2 °F - 35.6 °F 39% 30.12 in 10.0 mi West 9.2 mph - N/A   Clear
2:55 PM 62.4 °F - 35.4 °F 37% 30.11 in 10.0 mi West 10.4 mph - N/A   Clear
3:15 PM 63.0 °F - 35.8 °F 36% 30.11 in 10.0 mi West 10.4 mph - N/A   Clear
3:35 PM 62.6 °F - 34.9 °F 36% 30.11 in 10.0 mi West 11.5 mph - N/A   Clear
3:55 PM 61.9 °F - 38.3 °F 42% 30.10 in 10.0 mi WSW 6.9 mph - N/A   Clear
4:15 PM 59.9 °F - 36.7 °F 42% 30.10 in 10.0 mi WSW 6.9 mph - N/A   Clear
4:35 PM 59.9 °F - 38.5 °F 45% 30.10 in 10.0 mi West 5.8 mph - N/A   Clear
4:55 PM 57.6 °F - 38.5 °F 49% 30.11 in 10.0 mi West 5.8 mph - N/A   Clear
5:15 PM 54.9 °F - 40.1 °F 58% 30.10 in 10.0 mi West 6.9 mph - N/A   Clear
5:35 PM 53.2 °F - 40.1 °F 61% 30.11 in 10.0 mi WSW 6.9 mph - N/A   Clear
5:55 PM 50.0 °F - 39.0 °F 66% 30.12 in 10.0 mi WSW 6.9 mph - N/A   Clear
6:15 PM 50.2 °F - 39.6 °F 67% 30.12 in 10.0 mi SW 6.9 mph - N/A   Clear
6:35 PM 50.0 °F - 40.5 °F 70% 30.12 in 10.0 mi WSW 6.9 mph - N/A   Clear
6:55 PM 50.0 °F - 41.2 °F 72% 30.12 in 10.0 mi WSW 6.9 mph - N/A   Clear
7:15 PM 47.3 °F - 39.2 °F 73% 30.13 in 10.0 mi WSW 4.6 mph - N/A   Clear
7:35 PM 49.8 °F - 41.2 °F 72% 30.13 in 10.0 mi WSW 4.6 mph - N/A   Clear
7:55 PM 47.5 °F - 39.0 °F 72% 30.13 in 10.0 mi WSW 5.8 mph - N/A   Clear
8:15 PM 50.0 °F - 40.3 °F 69% 30.13 in 10.0 mi WSW 4.6 mph - N/A   Clear
8:35 PM 47.3 °F - 38.3 °F 71% 30.13 in 10.0 mi WSW 5.8 mph - N/A   Clear
8:55 PM 43.7 °F 39.7 °F 36.9 °F 77% 30.13 in 10.0 mi WSW 6.9 mph - N/A   Clear
9:15 PM 43.7 °F 39.1 °F 37.4 °F 78% 30.13 in 10.0 mi West 8.1 mph - N/A   Clear
9:35 PM 43.9 °F 39.3 °F 37.4 °F 78% 30.13 in 10.0 mi WSW 8.1 mph - N/A   Clear
9:55 PM 42.4 °F 38.1 °F 36.9 °F 81% 30.13 in 10.0 mi West 6.9 mph - N/A   Clear
10:15 PM 42.3 °F 38.6 °F 37.2 °F 82% 30.13 in 10.0 mi West 5.8 mph - N/A   Clear
10:35 PM 42.1 °F 37.7 °F 37.0 °F 82% 30.13 in 10.0 mi West 6.9 mph - N/A   Clear
10:55 PM 41.0 °F 38.0 °F 36.0 °F 82% 30.13 in 10.0 mi West 4.6 mph - N/A   Clear
11:15 PM 40.3 °F 36.3 °F 35.6 °F 83% 30.13 in 10.0 mi West 5.8 mph - N/A   Clear
11:35 PM 39.7 °F 37.6 °F 36.3 °F 88% 30.13 in 10.0 mi WNW 3.5 mph - N/A   Clear
11:55 PM 39.7 °F 37.6 °F 36.3 °F 88% 30.13 in 10.0 mi West 3.5 mph - N/A   Clear